FW4174 Weather Reports


Display with metric or nautical units.
time (UTC)temp
F
wind
direction
speed
MPH
gust
MPH
rain 1hr
in
rain 24hr
in
rain mn
in
humidity
%
barometer
mb
20260510021559 51 314 1.0 4.0 0.00 0.00 0.00 41 1014.4
20260510021045 51 312 1.0 4.0 0.00 0.00 0.00 41 1014.3
20260510020545 51 314 2.0 4.0 0.00 0.00 0.00 40 1014.3
20260510020052 52 313 2.0 5.0 0.00 0.00 0.00 40 1014.1
20260510015545 52 314 2.0 5.0 0.00 0.00 0.00 40 1014.0
20260510015045 52 313 2.0 5.0 0.00 0.00 0.00 39 1013.9
20260510014600 53 314 1.0 4.0 0.00 0.00 0.00 38 1013.8
20260510014044 53 309 2.0 4.0 0.00 0.00 0.00 38 1013.7
20260510013545 53 320 2.0 4.0 0.00 0.00 0.00 38 1013.5
20260510013121 54 310 2.0 5.0 0.00 0.00 0.00 37 1013.5
20260510012543 54 305 2.0 8.0 0.00 0.00 0.00 36 1013.4
20260510012043 55 328 3.0 8.0 0.00 0.00 0.00 36 1013.3
20260510011556 55 332 2.0 6.0 0.00 0.00 0.00 35 1013.3
20260510011042 55 311 2.0 7.0 0.00 0.00 0.00 35 1013.2
20260510010542 56 305 2.0 7.0 0.00 0.00 0.00 34 1013.2
20260510010054 56 275 2.0 7.0 0.00 0.00 0.00 34 1013.1
20260510005545 56 292 2.0 8.0 0.00 0.00 0.00 34 1013.1
20260510005045 56 308 2.0 9.0 0.00 0.00 0.00 33 1013.0
20260510004554 56 318 4.0 9.0 0.00 0.00 0.00 33 1013.0
20260510004045 57 319 4.0 9.0 0.00 0.00 0.00 33 1012.9
20260510003545 57 307 4.0 9.0 0.00 0.00 0.00 32 1012.8
20260510003104 57 275 3.0 8.0 0.00 0.00 0.00 31 1012.7
20260510002543 58 295 2.0 9.0 0.00 0.00 0.00 31 1012.7
20260510002045 57 332 3.0 9.0 0.00 0.00 0.00 31 1012.5
20260510001554 57 337 3.0 9.0 0.00 0.00 0.00 31 1012.6
20260510001045 57 306 2.0 10.0 0.00 0.00 0.00 31 1012.5
20260510000547 58 313 5.0 11.0 0.00 0.00 0.00 30 1012.5
20260510000116 58 352 7.0 11.0 0.00 0.00 0.00 30 1012.4
20260509235545 59 312 3.0 11.0 0.00 0.00 0.00 28 1012.4
20260509235042 59 296 5.0 11.0 0.00 0.00 0.00 28 1012.3
20260509234554 60 328 3.0 10.0 0.00 0.00 0.00 27 1012.4
20260509234042 60 275 6.0 10.0 0.00 0.00 0.00 27 1012.3
20260509233545 60 297 3.0 11.0 0.00 0.00 0.00 27 1012.1
20260509233055 61 5 5.0 11.0 0.00 0.00 0.00 28 1012.0
20260509232542 61 336 3.0 15.0 0.00 0.00 0.00 27 1012.0
20260509232045 61 300 6.0 15.0 0.00 0.00 0.00 29 1011.9
20260509231556 61 351 10.0 15.0 0.00 0.00 0.00 28 1011.8
20260509231044 61 360 6.0 16.0 0.00 0.00 0.00 29 1011.8
20260509230545 61 298 8.0 16.0 0.00 0.00 0.00 29 1011.8
20260509230052 61 313 6.0 14.0 0.00 0.00 0.00 28 1011.8
20260509225546 62 339 4.0 17.0 0.00 0.00 0.00 29 1011.6
20260509225045 62 288 8.0 17.0 0.00 0.00 0.00 28 1011.6
20260509224552 62 269 4.0 11.0 0.00 0.00 0.00 28 1011.3
20260509224045 62 5 5.0 11.0 0.00 0.00 0.00 27 1011.4
20260509223545 61 277 4.0 12.0 0.00 0.00 0.00 26 1011.2
20260509223103 62 272 5.0 13.0 0.00 0.00 0.00 28 1011.1
20260509222546 62 319 7.0 13.0 0.00 0.00 0.00 28 1011.1
20260509222043 62 323 2.0 11.0 0.00 0.00 0.00 27 1011.0
20260509221600 63 22 5.0 11.0 0.00 0.00 0.00 27 1011.0
20260509221045 63 324 6.0 11.0 0.00 0.00 0.00 28 1011.0
20260509220545 62 288 4.0 12.0 0.00 0.00 0.00 26 1010.9
20260509220052 62 293 6.0 12.0 0.00 0.00 0.00 26 1011.0
20260509215544 62 205 4.0 11.0 0.00 0.00 0.00 26 1010.9
20260509215043 63 294 3.0 11.0 0.00 0.00 0.00 25 1011.0
20260509214600 63 336 4.0 11.0 0.00 0.00 0.00 25 1010.9
20260509214043 63 274 4.0 15.0 0.00 0.00 0.00 26 1010.8
20260509213545 63 311 4.0 15.0 0.00 0.00 0.00 27 1010.9
20260509213051 63 336 8.0 15.0 0.00 0.00 0.00 27 1010.9
20260509212547 63 318 5.0 15.0 0.00 0.00 0.00 26 1010.8
20260509212044 63 308 9.0 15.0 0.00 0.00 0.00 27 1010.8
20260509211552 63 307 5.0 13.0 0.00 0.00 0.00 26 1010.8
20260509211045 63 310 4.0 13.0 0.00 0.00 0.00 27 1010.7
20260509210546 64 11 4.0 14.0 0.00 0.00 0.00 26 1010.7
20260509210051 64 261 5.0 14.0 0.00 0.00 0.00 27 1010.6
20260509205544 64 324 10.0 14.0 0.00 0.00 0.00 25 1010.6
20260509205044 65 283 6.0 15.0 0.00 0.00 0.00 24 1010.4
20260509204553 65 309 8.0 15.0 0.00 0.00 0.00 26 1010.6
20260509204045 65 343 6.0 17.0 0.00 0.00 0.00 26 1010.5
20260509203545 64 352 8.0 18.0 0.00 0.00 0.00 27 1010.4
20260509203049 65 315 12.0 18.0 0.00 0.00 0.00 25 1010.4
20260509202542 66 316 4.0 13.0 0.00 0.00 0.00 26 1010.3
20260509202045 65 38 6.0 15.0 0.00 0.00 0.00 26 1010.2
20260509201549 65 338 7.0 15.0 0.00 0.00 0.00 28 1010.2
20260509201044 65 316 5.0 11.0 0.00 0.00 0.00 28 1010.3
20260509200544 64 291 5.0 14.0 0.00 0.00 0.00 27 1010.1
20260509200106 64 312 6.0 17.0 0.00 0.00 0.00 28 1010.1
20260509195545 64 331 6.0 22.0 0.00 0.00 0.00 28 1010.0
20260509195045 64 327 10.0 22.0 0.00 0.00 0.00 28 1010.0
20260509194554 65 324 11.0 16.0 0.00 0.00 0.00 27 1010.1
20260509194045 65 325 7.0 14.0 0.00 0.00 0.00 29 1009.9
20260509193544 65 307 4.0 12.0 0.00 0.00 0.00 29 1009.9
20260509193051 65 296 4.0 17.0 0.00 0.00 0.00 31 1010.0
20260509192545 65 309 8.0 17.0 0.00 0.00 0.00 29 1009.9
20260509192045 65 317 3.0 13.0 0.00 0.00 0.00 31 1009.8
20260509191549 64 310 6.0 21.0 0.00 0.00 0.00 31 1009.9
20260509191045 63 327 10.0 21.0 0.00 0.00 0.00 32 1009.9
20260509190544 63 299 9.0 17.0 0.00 0.00 0.00 31 1009.9
20260509190055 63 284 6.0 17.0 0.00 0.00 0.00 29 1009.9
20260509185545 64 321 5.0 16.0 0.00 0.00 0.00 29 1009.8
20260509185045 64 307 7.0 16.0 0.00 0.00 0.00 30 1009.7
20260509184553 64 5 10.0 16.0 0.00 0.00 0.00 30 1009.8
20260509184044 64 327 7.0 14.0 0.00 0.00 0.00 29 1009.7
20260509183544 64 301 4.0 14.0 0.00 0.00 0.00 30 1009.6
20260509183104 64 309 6.0 12.0 0.00 0.00 0.00 29 1009.6
20260509182545 64 273 7.0 17.0 0.00 0.00 0.00 31 1009.6
20260509182044 63 311 8.0 21.0 0.00 0.00 0.00 33 1009.6
20260509181552 63 325 12.0 21.0 0.00 0.00 0.00 33 1009.6
20260509181045 63 321 8.0 17.0 0.00 0.00 0.00 33 1009.6
20260509180548 63 331 8.0 17.0 0.00 0.00 0.00 34 1009.6
20260509180051 63 306 6.0 15.0 0.00 0.00 0.00 33 1009.5
20260509175545 63 293 8.0 15.0 0.00 0.00 0.00 33 1009.4
20260509175048 63 317 8.0 15.0 0.00 0.00 0.00 33 1009.4
20260509174552 63 343 7.0 15.0 0.00 0.00 0.00 35 1009.4
20260509174044 63 185 4.0 15.0 0.00 0.00 0.00 35 1009.3
20260509173544 63 298 5.0 18.0 0.00 0.00 0.00 39 1009.3
20260509173057 63 338 10.0 18.0 0.00 0.00 0.00 37 1009.3
20260509172545 63 309 3.0 11.0 0.00 0.00 0.00 37 1009.2
20260509172044 62 299 5.0 16.0 0.00 0.00 0.00 36 1009.1
20260509171556 62 27 6.0 20.0 0.00 0.00 0.00 36 1009.2
20260509171044 61 319 10.0 20.0 0.00 0.00 0.00 37 1009.3
20260509170544 62 331 7.0 16.0 0.00 0.00 0.00 38 1009.2
20260509170053 62 323 7.0 16.0 0.00 0.00 0.00 36 1009.2
20260509165545 62 323 9.0 16.0 0.00 0.00 0.00 38 1009.3
20260509165044 62 306 5.0 15.0 0.00 0.00 0.00 38 1009.2
20260509164553 61 352 7.0 16.0 0.00 0.00 0.00 41 1009.3
20260509164047 61 286 8.0 20.0 0.00 0.00 0.00 39 1009.0
20260509163545 61 327 9.0 20.0 0.00 0.00 0.00 40 1009.2
20260509163056 61 344 3.0 15.0 0.00 0.00 0.00 40 1009.0
20260509162547 60 340 7.0 18.0 0.00 0.00 0.00 42 1009.0
20260509162046 60 334 10.0 18.0 0.00 0.00 0.00 40 1009.1
20260509161554 60 335 11.0 17.0 0.00 0.00 0.00 39 1009.0
20260509161045 61 314 6.0 18.0 0.00 0.00 0.00 42 1009.0
20260509160545 60 323 9.0 18.0 0.00 0.00 0.00 42 1008.9
20260509160055 60 347 11.0 18.0 0.00 0.00 0.00 42 1008.9
20260509155547 60 317 7.0 15.0 0.00 0.00 0.00 45 1008.8
20260509155044 59 324 7.0 17.0 0.00 0.00 0.00 48 1008.8
20260509154555 59 9 8.0 17.0 0.00 0.00 0.00 49 1008.8
20260509154044 59 327 9.0 16.0 0.00 0.00 0.00 46 1008.7
20260509153544 58 325 7.0 19.0 0.00 0.00 0.00 51 1008.6
20260509153058 58 341 9.0 19.0 0.00 0.00 0.00 54 1008.6
20260509152544 58 349 4.0 17.0 0.00 0.00 0.00 56 1008.6
20260509152044 57 338 9.0 17.0 0.00 0.00 0.00 55 1008.6
20260509151600 58 322 4.0 16.0 0.00 0.00 0.00 59 1008.5
20260509151044 57 325 10.0 19.0 0.00 0.00 0.00 59 1008.4
20260509150548 57 313 8.0 19.0 0.00 0.00 0.00 60 1008.3
20260509145545 57 323 10.0 20.0 0.00 0.00 0.00 59 1008.0
20260509145045 57 331 9.0 15.0 0.00 0.00 0.00 59 1008.0
20260509144556 58 312 6.0 15.0 0.00 0.00 0.00 61 1008.0
20260509144045 57 311 6.0 18.0 0.00 0.00 0.00 62 1008.0
20260509143545 55 286 9.0 18.0 0.00 0.00 0.00 64 1007.9
20260509143101 55 323 11.0 17.0 0.00 0.00 0.00 61 1007.9
20260509142544 56 327 5.0 10.0 0.00 0.00 0.00 63 1007.9
20260509142044 56 337 4.0 12.0 0.00 0.00 0.00 64 1007.9
20260509141601 56 335 5.0 12.0 0.00 0.00 0.00 62 1007.8
20260509141045 56 323 6.0 17.0 0.00 0.00 0.00 64 1007.7
20260509140544 56 319 9.0 17.0 0.00 0.00 0.00 64 1007.6
20260509140105 56 350 10.0 15.0 0.00 0.00 0.00 64 1007.6
20260509135544 56 321 8.0 17.0 0.00 0.00 0.00 63 1007.5
20260509135048 56 278 8.0 17.0 0.00 0.00 0.00 64 1007.5
20260509134600 56 306 6.0 12.0 0.00 0.00 0.00 66 1007.4
20260509134044 56 336 4.0 10.0 0.00 0.00 0.00 66 1007.2
20260509133544 55 266 3.0 9.0 0.00 0.00 0.00 67 1007.2
20260509133051 55 325 4.0 9.0 0.00 0.00 0.00 66 1007.1
20260509132546 55 304 3.0 10.0 0.00 0.00 0.00 70 1007.0
20260509132043 54 319 3.0 10.0 0.00 0.00 0.00 71 1006.8
20260509131554 54 273 4.0 10.0 0.00 0.00 0.00 72 1006.7
20260509131045 53 290 3.0 9.0 0.00 0.00 0.00 74 1006.5
20260509130545 54 303 3.0 8.0 0.00 0.00 0.00 72 1006.4
20260509130052 55 265 3.0 8.0 0.00 0.00 0.00 72 1006.2
20260509125544 55 272 3.0 8.0 0.00 0.00 0.00 72 1006.1
20260509125043 55 281 3.0 8.0 0.00 0.00 0.00 72 1005.9
20260509124554 54 290 3.0 10.0 0.00 0.00 0.00 72 1005.8
20260509124045 54 327 3.0 10.0 0.00 0.00 0.00 71 1005.7
20260509123545 54 317 2.0 6.0 0.00 0.00 0.00 70 1005.7
20260509123115 53 302 2.0 8.0 0.00 0.00 0.00 69 1005.6
20260509122545 53 256 2.0 8.0 0.00 0.00 0.00 68 1005.6
20260509122115 53 301 1.0 6.0 0.00 0.00 0.00 68 1005.6
20260509121558 53 289 1.0 6.0 0.00 0.00 0.00 68 1005.6
20260509121049 52 257 1.0 6.0 0.00 0.00 0.00 68 1005.5
20260509120547 51 281 0.0 2.0 0.00 0.00 0.00 69 1005.5
20260509120052 50 335 0.0 2.0 0.00 0.00 0.00 69 1005.3
20260509115543 50 18 0.0 2.0 0.00 0.00 0.00 68 1005.1
20260509115043 49 0 0.0 1.0 0.00 0.00 0.00 68 1005.1
20260509114559 49 0 0.0 1.0 0.00 0.00 0.00 67 1004.9
20260509114045 49 0 0.0 2.0 0.00 0.00 0.00 67 1004.9
20260509113549 49 0 0.0 2.0 0.00 0.00 0.00 66 1005.0
20260509113050 49 311 0.0 1.0 0.00 0.00 0.00 66 1004.8
20260509112544 49 0 0.0 1.0 0.00 0.00 0.00 65 1004.7
20260509112044 49 0 0.0 2.0 0.00 0.00 0.00 64 1004.7
20260509111552 49 0 0.0 2.0 0.00 0.00 0.00 64 1004.6
20260509111044 50 0 0.0 2.0 0.00 0.00 0.00 64 1004.8
20260509110545 49 0 0.0 1.0 0.00 0.00 0.00 64 1005.1
20260509110053 49 0 0.0 2.0 0.00 0.00 0.00 64 1005.0
20260509105544 50 0 0.0 2.0 0.00 0.00 0.00 63 1004.8
20260509105044 50 0 0.0 2.0 0.00 0.00 0.00 62 1004.8
20260509104552 50 0 0.0 2.0 0.00 0.00 0.00 61 1004.9
20260509104048 50 0 0.0 2.0 0.00 0.00 0.00 61 1004.9
20260509103544 50 0 1.0 3.0 0.00 0.00 0.00 60 1004.8
20260509103103 50 311 1.0 4.0 0.00 0.00 0.00 60 1004.8
20260509102545 50 329 2.0 5.0 0.00 0.00 0.00 59 1004.7
20260509102045 50 327 2.0 6.0 0.00 0.00 0.00 58 1004.8
20260509101559 50 328 3.0 8.0 0.00 0.00 0.00 57 1004.6
20260509101045 50 319 4.0 8.0 0.00 0.00 0.00 57 1004.6
20260509100544 50 346 3.0 7.0 0.00 0.00 0.00 56 1004.6
20260509100059 51 318 3.0 7.0 0.00 0.00 0.00 56 1004.6
20260509095544 51 311 2.0 7.0 0.00 0.00 0.00 55 1004.5
20260509095044 50 302 2.0 7.0 0.00 0.00 0.00 54 1004.4
20260509094554 50 323 1.0 3.0 0.00 0.00 0.00 55 1004.3
20260509094044 50 298 0.0 3.0 0.00 0.00 0.00 54 1004.2
20260509093544 50 298 0.0 3.0 0.00 0.00 0.00 54 1003.9
20260509093051 51 298 1.0 3.0 0.00 0.00 0.00 53 1003.9
20260509092548 51 0 0.0 2.0 0.00 0.00 0.00 52 1003.5
20260509092044 51 0 0.0 4.0 0.00 0.00 0.00 52 1003.4
20260509091553 51 0 1.0 4.0 0.00 0.00 0.00 51 1003.4
20260509091048 51 107 2.0 7.0 0.00 0.00 0.00 52 1003.4
20260509090546 51 0 3.0 11.0 0.00 0.00 0.00 52 1003.5
20260509090057 50 200 4.0 11.0 0.00 0.00 0.00 53 1003.7
20260509085546 50 309 6.0 11.0 0.00 0.00 0.00 54 1003.7
20260509085048 50 239 6.0 10.0 0.00 0.00 0.00 52 1002.2
20260509084554 50 238 4.0 8.0 0.00 0.00 0.00 52 1002.2
20260509084045 50 241 4.0 8.0 0.00 0.00 0.00 51 1002.1
20260509083544 50 243 4.0 8.0 0.00 0.00 0.00 51 1002.0
20260509083057 51 238 4.0 8.0 0.00 0.00 0.00 51 1002.0
20260509082544 51 166 3.0 8.0 0.00 0.00 0.00 50 1001.9
20260509082044 51 268 4.0 7.0 0.00 0.00 0.00 50 1001.8
20260509081552 51 257 4.0 8.0 0.00 0.00 0.00 50 1001.8
20260509081045 51 253 4.0 8.0 0.00 0.00 0.00 50 1001.9
20260509080544 51 207 4.0 8.0 0.00 0.00 0.00 50 1001.9
20260509080054 51 261 5.0 8.0 0.00 0.00 0.00 50 1001.8
20260509075545 50 250 5.0 8.0 0.00 0.00 0.00 51 1001.9
20260509075045 50 236 4.0 8.0 0.00 0.00 0.00 51 1001.8
20260509074605 50 219 5.0 9.0 0.00 0.00 0.00 52 1001.9
20260509074045 49 273 5.0 9.0 0.00 0.00 0.00 52 1002.0
20260509073545 49 250 4.0 9.0 0.00 0.00 0.00 52 1002.0
20260509073051 49 237 3.0 7.0 0.00 0.00 0.00 53 1002.0
20260509072545 48 274 2.0 4.0 0.00 0.00 0.00 53 1002.1
20260509072047 49 259 2.0 4.0 0.00 0.00 0.00 52 1002.1
20260509071604 49 257 2.0 7.0 0.00 0.00 0.00 51 1002.2
20260509071045 50 258 3.0 7.0 0.00 0.00 0.00 51 1002.3
20260509070547 50 231 4.0 8.0 0.00 0.00 0.00 51 1002.4
20260509070054 49 254 4.0 8.0 0.00 0.00 0.00 52 1002.6
20260509065544 49 250 5.0 8.0 0.00 0.00 0.00 52 1002.7
20260509065045 48 227 3.0 6.0 0.00 0.00 0.00 53 1002.9
20260509064549 48 281 3.0 5.0 0.00 0.00 0.00 52 1002.8
20260509064045 49 256 2.0 4.0 0.00 0.00 0.00 52 1002.8
20260509063544 49 258 2.0 4.0 0.00 0.00 0.00 51 1002.8
20260509063050 49 234 2.0 4.0 0.00 0.00 0.00 51 1002.9
20260509062545 49 248 2.0 6.0 0.00 0.00 0.00 50 1003.1
20260509062045 50 221 2.0 7.0 0.00 0.00 0.00 49 1003.1
20260509061557 50 258 4.0 8.0 0.00 0.00 0.00 48 1003.1
20260509061045 50 248 5.0 8.0 0.00 0.00 0.00 48 1003.2
20260509060548 50 249 5.0 8.0 0.00 0.00 0.00 48 1003.3
20260509060059 50 244 5.0 7.0 0.00 0.00 0.00 48 1003.4
20260509055547 50 253 4.0 7.0 0.00 0.00 0.00 49 1003.4
20260509055045 50 248 4.0 7.0 0.00 0.00 0.00 50 1003.4
20260509054607 50 241 4.0 7.0 0.00 0.00 0.00 50 1003.5
20260509054047 49 232 5.0 7.0 0.00 0.00 0.00 50 1003.6
20260509053547 49 236 2.0 7.0 0.00 0.00 0.00 50 1003.6
20260509053052 50 232 4.0 7.0 0.00 0.00 0.00 50 1003.8
20260509052544 50 248 4.0 7.0 0.00 0.00 0.00 49 1003.9
20260509052047 50 230 4.0 7.0 0.00 0.00 0.00 48 1003.9
20260509051552 51 244 4.0 7.0 0.00 0.00 0.00 48 1003.9
20260509051046 51 236 4.0 7.0 0.00 0.00 0.00 48 1003.9
20260509050547 50 240 4.0 7.0 0.00 0.00 0.00 48 1004.0
20260509050054 50 227 3.0 5.0 0.00 0.00 0.00 49 1004.0
20260509045545 50 227 1.0 4.0 0.00 0.00 0.00 49 1004.0
20260509045045 50 199 1.0 4.0 0.00 0.00 0.00 48 1004.1
20260509044552 50 233 3.0 4.0 0.00 0.00 0.00 48 1004.2
20260509044044 50 244 2.0 4.0 0.00 0.00 0.00 48 1004.2
20260509043549 51 230 2.0 4.0 0.00 0.00 0.00 46 1004.2
20260509043100 52 206 2.0 4.0 0.00 0.00 0.00 45 1004.3
20260509042547 53 219 2.0 4.0 0.00 0.00 0.00 43 1004.3
20260509042047 53 315 0.0 1.0 0.00 0.00 0.00 44 1004.3
20260509041554 53 0 0.0 1.0 0.00 0.00 0.00 42 1004.3
20260509041045 55 0 0.0 0.0 0.00 0.00 0.00 40 1004.3
20260509040545 55 0 0.0 0.0 0.00 0.00 0.00 43 1004.4
20260509040055 55 0 0.0 0.0 0.00 0.00 0.00 42 1004.5
20260509035547 55 0 0.0 0.0 0.00 0.00 0.00 42 1004.5
20260509035046 55 0 0.0 2.0 0.00 0.00 0.00 42 1004.4
20260509034553 55 0 0.0 2.0 0.00 0.00 0.00 42 1004.5
20260509034044 56 315 0.0 2.0 0.00 0.00 0.00 41 1004.5
20260509033547 56 315 0.0 2.0 0.00 0.00 0.00 40 1004.5
20260509033053 56 0 0.0 1.0 0.00 0.00 0.00 41 1004.4
20260509032544 57 0 0.0 1.0 0.00 0.00 0.00 40 1004.4
20260509032047 57 0 0.0 2.0 0.00 0.00 0.00 40 1004.2
20260509031619 57 0 0.0 3.0 0.00 0.00 0.00 39 1004.2
20260509031048 58 315 1.0 3.0 0.00 0.00 0.00 38 1004.2
20260509030549 58 315 1.0 3.0 0.00 0.00 0.00 38 1004.3
20260509030057 58 294 1.0 3.0 0.00 0.00 0.00 37 1004.2
20260509025545 59 304 1.0 3.0 0.00 0.00 0.00 37 1004.3
20260509025047 59 298 1.0 3.0 0.00 0.00 0.00 37 1004.2
20260509024552 59 298 1.0 3.0 0.00 0.00 0.00 37 1004.2
20260509024046 59 296 1.0 3.0 0.00 0.00 0.00 36 1004.2
20260509023548 60 319 1.0 4.0 0.00 0.00 0.00 35 1004.0
20260509023056 60 294 1.0 4.0 0.00 0.00 0.00 34 1004.0
20260509022547 61 299 1.0 4.0 0.00 0.00 0.00 34 1003.8
20260509022047 61 309 1.0 6.0 0.00 0.00 0.00 34 1003.8